Voltar ao catálogo

STARLINK-11361

AtivoComunicaçõesVLEO
NORAD 61585·PAYLOAD·🇺🇸 United States

Lançado Oct 18, 2024 de Cape Canaveral Space Force Station

Loading…

Próximas Passagens (próximas 24 horas)

TLE

AtualizadoSource: CelesTrak SupGP

Época: Sep 15, 2026, 02:21 UTC

1 61585C 24187M   26258.09840278  .00037368  00000+0  30764-3 0  2585
2 61585  53.1568  82.6691 0001038  85.2677  45.4443 15.69704633    13

Acompanhe STARLINK-11361 em tempo real com AllMySat

Download on the App Store